| time (UTC) | temp C | wind direction | speed KPH | gust KPH | rain 1hr cm | rain 24hr cm | rain mn cm | humidity % | barometer mb |
| 20260504050137 | 1 | 157 | 0.0 | 0.0 | 0.00 | 0.03 | 0.00 | 86 | 1012.7 |
| 20260504045037 | 0 | 157 | 0.0 | 0.0 | 0.00 | 0.03 | 0.00 | 86 | 1012.7 |
| 20260504044038 | 0 | 157 | 0.0 | 0.0 | 0.00 | 0.03 | 0.00 | 85 | 1012.6 |
| 20260504043938 | 0 | 157 | 0.0 | 0.0 | 0.00 | 0.03 | 0.00 | 85 | 1012.7 |
| 20260504042940 | 0 | 157 | 0.0 | 0.0 | 0.00 | 0.03 | 0.00 | 85 | 1012.7 |
| 20260504041939 | 0 | 157 | 0.0 | 0.0 | 0.00 | 0.03 | 0.00 | 85 | 1012.7 |
| 20260504040939 | 0 | 22 | 0.0 | 0.0 | 0.00 | 0.03 | 0.00 | 83 | 1012.7 |
| 20260504040031 | 0 | 22 | 0.0 | 0.0 | 0.00 | 0.03 | 0.00 | 83 | 1012.6 |
| 20260504035024 | 0 | 22 | 0.0 | 0.0 | 0.00 | 0.03 | 0.03 | 82 | 1012.5 |
| 20260504034925 | 0 | 22 | 0.0 | 0.0 | 0.00 | 0.03 | 0.03 | 83 | 1012.5 |
| 20260504033925 | 0 | 22 | 0.0 | 0.0 | 0.00 | 0.03 | 0.03 | 83 | 1012.5 |
| 20260504033024 | 0 | 22 | 0.0 | 0.0 | 0.00 | 0.03 | 0.03 | 82 | 1012.4 |
| 20260504032026 | 0 | 22 | 0.0 | 0.0 | 0.00 | 0.03 | 0.03 | 81 | 1012.4 |
| 20260504030223 | 0 | 22 | 0.0 | 0.0 | 0.00 | 0.03 | 0.03 | 81 | 1012.3 |
| 20260504030126 | 0 | 22 | 0.0 | 0.0 | 0.00 | 0.03 | 0.03 | 80 | 1012.5 |
| 20260504025124 | 1 | 22 | 0.0 | 0.0 | 0.00 | 0.03 | 0.03 | 81 | 1012.3 |
| 20260504024127 | 1 | 22 | 0.0 | 0.0 | 0.00 | 0.03 | 0.03 | 80 | 1012.2 |
| 20260504023224 | 1 | 22 | 0.0 | 0.0 | 0.00 | 0.03 | 0.03 | 79 | 1012.4 |
| 20260504022241 | 1 | 22 | 0.0 | 0.0 | 0.00 | 0.03 | 0.03 | 78 | 1012.5 |
| 20260504022126 | 1 | 22 | 0.0 | 0.0 | 0.00 | 0.03 | 0.03 | 77 | 1012.4 |
| 20260504021023 | 1 | 22 | 0.0 | 0.0 | 0.00 | 0.03 | 0.03 | 77 | 1012.4 |
| 20260504020026 | 1 | 22 | 0.0 | 0.0 | 0.00 | 0.03 | 0.03 | 76 | 1012.3 |
| 20260504015024 | 1 | 22 | 0.0 | 0.0 | 0.00 | 0.03 | 0.03 | 75 | 1012.4 |
| 20260504012124 | 2 | 22 | 0.0 | 0.0 | 0.00 | 0.03 | 0.03 | 69 | 1012.1 |
| 20260504011124 | 3 | 22 | 0.0 | 0.0 | 0.00 | 0.03 | 0.03 | 67 | 1011.9 |
| 20260504011025 | 3 | 22 | 0.0 | 0.0 | 0.00 | 0.03 | 0.03 | 67 | 1012.0 |
| 20260504010123 | 3 | 22 | 0.0 | 0.0 | 0.00 | 0.03 | 0.03 | 65 | 1011.9 |
| 20260504010043 | 3 | 22 | 0.0 | 0.0 | 0.00 | 0.03 | 0.03 | 64 | 1011.8 |
| 20260504005024 | 4 | 22 | 0.0 | 0.0 | 0.00 | 0.03 | 0.03 | 62 | 1011.7 |
| 20260504004124 | 4 | 22 | 0.0 | 0.0 | 0.00 | 0.03 | 0.03 | 58 | 1011.6 |
| 20260504003140 | 5 | 22 | 0.0 | 0.0 | 0.00 | 0.03 | 0.03 | 57 | 1011.6 |
| 20260504002226 | 5 | 22 | 0.0 | 0.0 | 0.00 | 0.03 | 0.03 | 53 | 1011.5 |
| 20260504001226 | 6 | 22 | 0.0 | 1.6 | 0.00 | 0.03 | 0.03 | 50 | 1011.3 |
| 20260504000226 | 7 | 22 | 0.0 | 0.0 | 0.00 | 0.03 | 0.03 | 48 | 1011.2 |
| 20260503235224 | 7 | 22 | 1.6 | 1.6 | 0.00 | 0.03 | 0.03 | 46 | 1011.2 |
| 20260503234324 | 8 | 22 | 0.0 | 0.0 | 0.00 | 0.03 | 0.03 | 44 | 1011.2 |
| 20260503231423 | 8 | 336 | 4.8 | 8.0 | 0.00 | 0.03 | 0.03 | 43 | 1010.9 |
| 20260503230423 | 8 | 346 | 6.4 | 11.3 | 0.00 | 0.03 | 0.03 | 43 | 1010.8 |
| 20260503225425 | 8 | 336 | 4.8 | 8.0 | 0.00 | 0.03 | 0.03 | 42 | 1010.6 |
| 20260503224424 | 8 | 338 | 4.8 | 12.9 | 0.00 | 0.03 | 0.03 | 43 | 1010.8 |
| 20260503223426 | 8 | 314 | 4.8 | 6.4 | 0.00 | 0.03 | 0.03 | 41 | 1010.6 |
| 20260503222425 | 9 | 295 | 4.8 | 11.3 | 0.00 | 0.03 | 0.03 | 42 | 1010.7 |
| 20260503221523 | 8 | 302 | 9.7 | 16.1 | 0.00 | 0.03 | 0.03 | 41 | 1010.7 |
| 20260503215624 | 9 | 315 | 1.6 | 4.8 | 0.00 | 0.03 | 0.03 | 41 | 1010.6 |
| 20260503214525 | 9 | 336 | 6.4 | 14.5 | 0.00 | 0.03 | 0.03 | 41 | 1010.5 |
| 20260503213624 | 9 | 231 | 3.2 | 6.4 | 0.00 | 0.05 | 0.03 | 40 | 1010.4 |
| 20260503212723 | 8 | 326 | 9.7 | 16.1 | 0.00 | 0.10 | 0.03 | 40 | 1010.5 |
| 20260503210725 | 10 | 313 | 1.6 | 9.7 | 0.00 | 0.10 | 0.03 | 40 | 1010.1 |
| 20260503204726 | 8 | 316 | 14.5 | 29.0 | 0.00 | 0.10 | 0.03 | 41 | 1010.1 |
| 20260503203726 | 8 | 298 | 6.4 | 12.9 | 0.00 | 0.10 | 0.03 | 40 | 1010.1 |
| 20260503202742 | 9 | 329 | 9.7 | 14.5 | 0.00 | 0.10 | 0.03 | 38 | 1009.9 |
| 20260503201824 | 9 | 272 | 8.0 | 12.9 | 0.00 | 0.10 | 0.03 | 40 | 1009.9 |
| 20260503201739 | 9 | 310 | 4.8 | 9.7 | 0.00 | 0.10 | 0.03 | 40 | 1010.1 |
| 20260503195743 | 9 | 316 | 9.7 | 14.5 | 0.00 | 0.10 | 0.03 | 39 | 1009.9 |
| 20260503194825 | 9 | 318 | 12.9 | 25.7 | 0.00 | 0.10 | 0.03 | 40 | 1009.7 |
| 20260503194724 | 9 | 325 | 14.5 | 24.1 | 0.00 | 0.10 | 0.03 | 40 | 1009.7 |
| 20260503192725 | 9 | 360 | 14.5 | 24.1 | 0.00 | 0.10 | 0.03 | 40 | 1009.7 |
| 20260503191725 | 9 | 278 | 14.5 | 29.0 | 0.00 | 0.10 | 0.03 | 41 | 1009.7 |
| 20260503190824 | 9 | 335 | 11.3 | 20.9 | 0.00 | 0.10 | 0.03 | 39 | 1009.7 |
| 20260503190724 | 9 | 318 | 6.4 | 11.3 | 0.00 | 0.10 | 0.03 | 40 | 1009.9 |
| 20260503185723 | 9 | 342 | 6.4 | 17.7 | 0.00 | 0.10 | 0.03 | 40 | 1009.5 |
| 20260503184725 | 9 | 347 | 8.0 | 16.1 | 0.00 | 0.10 | 0.03 | 39 | 1009.4 |
| 20260503182823 | 9 | 340 | 3.2 | 6.4 | 0.00 | 0.10 | 0.03 | 40 | 1009.6 |
| 20260503182725 | 9 | 347 | 4.8 | 12.9 | 0.00 | 0.10 | 0.03 | 40 | 1009.4 |
| 20260503181723 | 9 | 348 | 8.0 | 14.5 | 0.00 | 0.10 | 0.03 | 41 | 1009.7 |
| 20260503181623 | 9 | 5 | 6.4 | 12.9 | 0.00 | 0.10 | 0.03 | 41 | 1009.7 |
| 20260503180623 | 9 | 283 | 6.4 | 16.1 | 0.00 | 0.10 | 0.03 | 42 | 1009.8 |
| 20260503180524 | 9 | 320 | 6.4 | 11.3 | 0.00 | 0.10 | 0.03 | 41 | 1009.7 |
| 20260503175524 | 10 | 341 | 8.0 | 19.3 | 0.00 | 0.10 | 0.03 | 41 | 1009.6 |
| 20260503174526 | 10 | 346 | 8.0 | 12.9 | 0.00 | 0.10 | 0.03 | 42 | 1009.3 |
| 20260503173524 | 9 | 336 | 11.3 | 25.7 | 0.00 | 0.10 | 0.03 | 44 | 1009.3 |
| 20260503171526 | 10 | 286 | 14.5 | 22.5 | 0.00 | 0.10 | 0.03 | 45 | 1009.4 |
| 20260503150825 | 7 | 351 | 11.3 | 22.5 | 0.00 | 0.23 | 0.03 | 61 | 1009.7 |
| 20260503131126 | 5 | 342 | 6.4 | 11.3 | 0.00 | 0.23 | 0.03 | 80 | 1010.6 |
| 20260503130223 | 4 | 348 | 4.8 | 8.0 | 0.00 | 0.23 | 0.03 | 80 | 1010.6 |
| 20260503090225 | 3 | 316 | 6.4 | 9.7 | 0.00 | 0.41 | 0.00 | 89 | 1010.7 |
| 20260503080224 | 3 | 337 | 3.2 | 6.4 | 0.00 | 0.58 | 0.00 | 89 | 1011.5 |
| 20260503072224 | 3 | 343 | 3.2 | 4.8 | 0.00 | 0.61 | 0.00 | 90 | 1011.6 |
| 20260503071224 | 3 | 338 | 3.2 | 3.2 | 0.00 | 0.64 | 0.00 | 89 | 1011.7 |
| 20260503070225 | 3 | 336 | 3.2 | 4.8 | 0.00 | 0.64 | 0.00 | 91 | 1011.9 |
| 20260503060124 | 3 | 337 | 0.0 | 0.0 | 0.00 | 0.66 | 0.00 | 91 | 1012.5 |